| time (UTC) | temp F | wind direction | speed MPH | gust MPH | rain 1hr in | rain 24hr in | rain mn in | humidity % | barometer mb |
| 20260510205004 | 78 | 201 | 1.0 | 5.0 | 0.00 | 0.01 | 0.01 | 60 | 1016.6 |
| 20260510204505 | 78 | 65 | 2.0 | 5.0 | 0.00 | 0.01 | 0.01 | 63 | 1016.7 |
| 20260510204005 | 78 | 50 | 1.0 | 6.0 | 0.00 | 0.01 | 0.01 | 63 | 1016.7 |
| 20260510203508 | 78 | 53 | 2.0 | 6.0 | 0.00 | 0.01 | 0.01 | 61 | 1016.7 |
| 20260510203010 | 78 | 339 | 3.0 | 5.0 | 0.00 | 0.01 | 0.01 | 66 | 1016.7 |
| 20260510202508 | 77 | 140 | 0.0 | 5.0 | 0.00 | 0.01 | 0.01 | 64 | 1016.8 |
| 20260510202007 | 77 | 136 | 2.0 | 6.0 | 0.00 | 0.01 | 0.01 | 64 | 1016.8 |
| 20260510201505 | 77 | 96 | 2.0 | 7.0 | 0.00 | 0.01 | 0.01 | 62 | 1016.8 |
| 20260510201009 | 77 | 131 | 3.0 | 7.0 | 0.00 | 0.01 | 0.01 | 65 | 1016.8 |
| 20260510200503 | 77 | 122 | 4.0 | 6.0 | 0.00 | 0.01 | 0.01 | 63 | 1016.7 |
| 20260510200021 | 77 | 67 | 3.0 | 8.0 | 0.00 | 0.01 | 0.01 | 64 | 1016.7 |
| 20260510195507 | 77 | 143 | 2.0 | 9.0 | 0.00 | 0.01 | 0.01 | 69 | 1016.8 |
| 20260510195007 | 77 | 107 | 3.0 | 10.0 | 0.00 | 0.01 | 0.01 | 63 | 1016.9 |
| 20260510194511 | 77 | 94 | 6.0 | 10.0 | 0.00 | 0.01 | 0.01 | 63 | 1016.9 |
| 20260510194004 | 78 | 47 | 5.0 | 9.0 | 0.00 | 0.01 | 0.01 | 64 | 1016.7 |
| 20260510193504 | 77 | 113 | 2.0 | 5.0 | 0.00 | 0.01 | 0.01 | 61 | 1016.7 |
| 20260510193011 | 77 | 77 | 3.0 | 6.0 | 0.00 | 0.01 | 0.01 | 63 | 1016.7 |
| 20260510192506 | 76 | 63 | 3.0 | 5.0 | 0.00 | 0.01 | 0.01 | 65 | 1016.8 |
| 20260510192008 | 76 | 37 | 1.0 | 5.0 | 0.00 | 0.01 | 0.01 | 64 | 1016.8 |
| 20260510191526 | 76 | 22 | 2.0 | 6.0 | 0.00 | 0.01 | 0.01 | 65 | 1017.0 |
| 20260510191007 | 77 | 61 | 2.0 | 10.0 | 0.00 | 0.01 | 0.01 | 64 | 1017.1 |
| 20260510190506 | 77 | 15 | 2.0 | 8.0 | 0.00 | 0.01 | 0.01 | 65 | 1017.1 |
| 20260510190018 | 77 | 70 | 4.0 | 7.0 | 0.00 | 0.01 | 0.01 | 65 | 1017.2 |
| 20260510185507 | 77 | 125 | 3.0 | 8.0 | 0.00 | 0.01 | 0.01 | 64 | 1017.2 |
| 20260510185011 | 77 | 302 | 3.0 | 8.0 | 0.00 | 0.01 | 0.01 | 65 | 1017.3 |
| 20260510184513 | 76 | 80 | 1.0 | 7.0 | 0.00 | 0.01 | 0.01 | 65 | 1017.3 |
| 20260510184016 | 76 | 69 | 3.0 | 7.0 | 0.00 | 0.01 | 0.01 | 66 | 1017.4 |
| 20260510183513 | 76 | 130 | 4.0 | 7.0 | 0.00 | 0.01 | 0.01 | 65 | 1017.4 |
| 20260510183008 | 76 | 202 | 3.0 | 6.0 | 0.00 | 0.01 | 0.01 | 68 | 1017.5 |
| 20260510182503 | 75 | 139 | 2.0 | 6.0 | 0.00 | 0.01 | 0.01 | 70 | 1017.5 |
| 20260510182007 | 75 | 251 | 2.0 | 6.0 | 0.00 | 0.01 | 0.01 | 67 | 1017.5 |
| 20260510181507 | 74 | 105 | 0.0 | 6.0 | 0.00 | 0.01 | 0.01 | 67 | 1017.7 |
| 20260510181007 | 74 | 123 | 2.0 | 6.0 | 0.00 | 0.01 | 0.01 | 69 | 1017.6 |
| 20260510180507 | 73 | 172 | 0.0 | 6.0 | 0.00 | 0.01 | 0.01 | 70 | 1017.6 |
| 20260510180019 | 73 | 93 | 3.0 | 6.0 | 0.00 | 0.01 | 0.01 | 71 | 1017.7 |
| 20260510175508 | 74 | 333 | 2.0 | 6.0 | 0.00 | 0.01 | 0.01 | 70 | 1017.7 |
| 20260510175004 | 74 | 9 | 2.0 | 6.0 | 0.00 | 0.01 | 0.01 | 70 | 1017.7 |
| 20260510174524 | 74 | 250 | 2.0 | 4.0 | 0.00 | 0.01 | 0.01 | 70 | 1017.7 |
| 20260510174010 | 74 | 76 | 3.0 | 4.0 | 0.00 | 0.01 | 0.01 | 70 | 1017.8 |
| 20260510173510 | 74 | 80 | 0.0 | 3.0 | 0.00 | 0.01 | 0.01 | 72 | 1017.8 |
| 20260510173025 | 74 | 171 | 1.0 | 2.0 | 0.00 | 0.01 | 0.01 | 68 | 1017.8 |
| 20260510172507 | 74 | 200 | 0.0 | 4.0 | 0.00 | 0.01 | 0.01 | 69 | 1017.7 |
| 20260510172013 | 73 | 117 | 2.0 | 6.0 | 0.00 | 0.01 | 0.01 | 73 | 1017.8 |
| 20260510171519 | 73 | 177 | 1.0 | 6.0 | 0.00 | 0.01 | 0.01 | 76 | 1018.0 |
| 20260510171004 | 72 | 144 | 1.0 | 4.0 | 0.00 | 0.01 | 0.01 | 77 | 1018.0 |
| 20260510170509 | 71 | 144 | 2.0 | 4.0 | 0.00 | 0.01 | 0.01 | 79 | 1018.0 |
| 20260510170015 | 70 | 96 | 1.0 | 4.0 | 0.00 | 0.01 | 0.01 | 77 | 1018.1 |
| 20260510165506 | 70 | 236 | 2.0 | 4.0 | 0.00 | 0.01 | 0.01 | 78 | 1018.2 |
| 20260510165007 | 70 | 258 | 2.0 | 3.0 | 0.00 | 0.01 | 0.01 | 77 | 1018.2 |
| 20260510164520 | 70 | 215 | 0.0 | 2.0 | 0.00 | 0.01 | 0.01 | 78 | 1018.3 |
| 20260510164010 | 70 | 151 | 1.0 | 3.0 | 0.00 | 0.01 | 0.01 | 78 | 1018.4 |
| 20260510163508 | 69 | 138 | 1.0 | 3.0 | 0.00 | 0.01 | 0.01 | 79 | 1018.5 |
| 20260510163016 | 69 | 137 | 1.0 | 3.0 | 0.00 | 0.01 | 0.01 | 80 | 1018.4 |
| 20260510162510 | 69 | 42 | 1.0 | 3.0 | 0.00 | 0.01 | 0.01 | 79 | 1018.4 |
| 20260510162007 | 68 | 242 | 0.0 | 3.0 | 0.00 | 0.01 | 0.01 | 83 | 1018.4 |
| 20260510161528 | 68 | 304 | 1.0 | 3.0 | 0.00 | 0.01 | 0.01 | 84 | 1018.5 |
| 20260510161010 | 67 | 32 | 1.0 | 3.0 | 0.00 | 0.01 | 0.01 | 83 | 1018.4 |
| 20260510160508 | 67 | 21 | 1.0 | 3.0 | 0.00 | 0.01 | 0.01 | 85 | 1018.3 |
| 20260510160025 | 66 | 105 | 0.0 | 3.0 | 0.00 | 0.01 | 0.01 | 85 | 1018.6 |
| 20260510155505 | 66 | 105 | 1.0 | 3.0 | 0.00 | 0.01 | 0.01 | 86 | 1018.6 |
| 20260510155007 | 65 | 124 | 2.0 | 3.0 | 0.00 | 0.01 | 0.01 | 87 | 1018.6 |
| 20260510154519 | 65 | 98 | 1.0 | 2.0 | 0.00 | 0.01 | 0.01 | 87 | 1018.6 |
| 20260510154007 | 65 | 98 | 1.0 | 3.0 | 0.00 | 0.01 | 0.01 | 88 | 1018.6 |
| 20260510153513 | 65 | 123 | 1.0 | 3.0 | 0.00 | 0.01 | 0.01 | 88 | 1018.6 |
| 20260510153021 | 65 | 130 | 1.0 | 3.0 | 0.00 | 0.01 | 0.01 | 89 | 1018.5 |
| 20260510152507 | 64 | 12 | 2.0 | 5.0 | 0.00 | 0.01 | 0.01 | 89 | 1018.5 |
| 20260510152011 | 64 | 71 | 2.0 | 5.0 | 0.00 | 0.01 | 0.01 | 89 | 1018.6 |
| 20260510151522 | 64 | 58 | 2.0 | 4.0 | 0.00 | 0.01 | 0.01 | 89 | 1018.7 |
| 20260510151006 | 64 | 9 | 2.0 | 4.0 | 0.00 | 0.01 | 0.01 | 89 | 1018.7 |
| 20260510150510 | 64 | 86 | 0.0 | 4.0 | 0.00 | 0.01 | 0.01 | 89 | 1018.6 |
| 20260510150005 | 64 | 86 | 1.0 | 4.0 | 0.00 | 0.01 | 0.01 | 89 | 1018.5 |
| 20260510145505 | 64 | 57 | 2.0 | 3.0 | 0.00 | 0.01 | 0.01 | 89 | 1018.5 |
| 20260510145003 | 64 | 107 | 1.0 | 2.0 | 0.00 | 0.01 | 0.01 | 90 | 1018.4 |
| 20260510144531 | 64 | 107 | 1.0 | 2.0 | 0.00 | 0.01 | 0.01 | 90 | 1018.4 |
| 20260510144007 | 64 | 99 | 1.0 | 2.0 | 0.00 | 0.01 | 0.01 | 90 | 1018.3 |
| 20260510143503 | 64 | 339 | 0.0 | 3.0 | 0.00 | 0.01 | 0.01 | 90 | 1018.4 |
| 20260510143033 | 64 | 339 | 2.0 | 3.0 | 0.00 | 0.01 | 0.01 | 90 | 1018.5 |
| 20260510142505 | 64 | 5 | 1.0 | 2.0 | 0.00 | 0.01 | 0.01 | 90 | 1018.4 |
| 20260510142003 | 63 | 47 | 1.0 | 3.0 | 0.00 | 0.01 | 0.01 | 90 | 1018.3 |
| 20260510141506 | 63 | 47 | 1.0 | 3.0 | 0.00 | 0.01 | 0.01 | 90 | 1018.2 |
| 20260510141005 | 63 | 20 | 2.0 | 5.0 | 0.00 | 0.01 | 0.01 | 90 | 1018.1 |
| 20260510140507 | 63 | 27 | 2.0 | 5.0 | 0.00 | 0.01 | 0.01 | 90 | 1018.1 |
| 20260510140009 | 63 | 91 | 2.0 | 3.0 | 0.00 | 0.01 | 0.01 | 90 | 1018.1 |
| 20260510135505 | 63 | 84 | 2.0 | 4.0 | 0.00 | 0.01 | 0.01 | 90 | 1018.0 |
| 20260510135007 | 63 | 107 | 3.0 | 4.0 | 0.00 | 0.01 | 0.01 | 90 | 1018.0 |
| 20260510134508 | 63 | 102 | 0.0 | 5.0 | 0.00 | 0.01 | 0.01 | 90 | 1018.0 |
| 20260510134005 | 63 | 59 | 3.0 | 5.0 | 0.00 | 0.01 | 0.01 | 90 | 1018.1 |
| 20260510133506 | 63 | 52 | 3.0 | 4.0 | 0.00 | 0.01 | 0.01 | 90 | 1017.9 |
| 20260510133008 | 63 | 49 | 0.0 | 3.0 | 0.00 | 0.01 | 0.01 | 90 | 1017.9 |
| 20260510132507 | 63 | 49 | 1.0 | 5.0 | 0.00 | 0.01 | 0.01 | 90 | 1018.0 |
| 20260510132008 | 63 | 49 | 2.0 | 5.0 | 0.00 | 0.01 | 0.01 | 90 | 1017.9 |
| 20260510131507 | 63 | 25 | 2.0 | 4.0 | 0.00 | 0.01 | 0.01 | 91 | 1017.8 |
| 20260510131003 | 63 | 157 | 0.0 | 2.0 | 0.00 | 0.01 | 0.01 | 91 | 1017.8 |
| 20260510130503 | 63 | 157 | 0.0 | 2.0 | 0.00 | 0.01 | 0.01 | 91 | 1017.6 |
| 20260510130012 | 62 | 169 | 0.0 | 3.0 | 0.00 | 0.01 | 0.01 | 90 | 1017.5 |
| 20260510125504 | 62 | 126 | 2.0 | 3.0 | 0.00 | 0.01 | 0.01 | 90 | 1017.4 |
| 20260510125004 | 62 | 163 | 0.0 | 2.0 | 0.00 | 0.01 | 0.01 | 90 | 1017.4 |
| 20260510124510 | 62 | 163 | 0.0 | 2.0 | 0.00 | 0.01 | 0.01 | 90 | 1017.4 |
| 20260510124006 | 62 | 84 | 0.0 | 4.0 | 0.00 | 0.01 | 0.01 | 90 | 1017.3 |
| 20260510123505 | 62 | 94 | 2.0 | 4.0 | 0.00 | 0.01 | 0.01 | 90 | 1017.3 |
| 20260510123026 | 62 | 70 | 2.0 | 3.0 | 0.00 | 0.01 | 0.01 | 90 | 1017.3 |
| 20260510122509 | 62 | 111 | 0.0 | 2.0 | 0.00 | 0.01 | 0.01 | 91 | 1017.4 |
| 20260510122012 | 62 | 111 | 0.0 | 2.0 | 0.00 | 0.01 | 0.01 | 91 | 1017.4 |
| 20260510121522 | 62 | 111 | 0.0 | 2.0 | 0.00 | 0.01 | 0.01 | 91 | 1017.3 |
| 20260510121007 | 62 | 111 | 1.0 | 2.0 | 0.01 | 0.01 | 0.01 | 91 | 1017.2 |
| 20260510120509 | 62 | 111 | 1.0 | 2.0 | 0.01 | 0.01 | 0.01 | 90 | 1017.1 |
| 20260510120004 | 62 | 159 | 0.0 | 2.0 | 0.01 | 0.01 | 0.01 | 90 | 1017.2 |
| 20260510115505 | 61 | 159 | 0.0 | 2.0 | 0.01 | 0.01 | 0.01 | 90 | 1017.2 |
| 20260510115007 | 61 | 117 | 1.0 | 2.0 | 0.01 | 0.02 | 0.01 | 90 | 1017.2 |
| 20260510114502 | 61 | 126 | 1.0 | 2.0 | 0.01 | 0.02 | 0.01 | 90 | 1017.1 |
| 20260510114005 | 61 | 84 | 0.0 | 2.0 | 0.01 | 0.02 | 0.01 | 90 | 1017.0 |
| 20260510113502 | 61 | 152 | 1.0 | 2.0 | 0.01 | 0.03 | 0.01 | 90 | 1016.8 |
| 20260510113009 | 61 | 155 | 1.0 | 2.0 | 0.01 | 0.03 | 0.01 | 90 | 1016.8 |
| 20260510112502 | 61 | 136 | 0.0 | 2.0 | 0.01 | 0.03 | 0.01 | 90 | 1016.6 |
| 20260510112002 | 61 | 136 | 0.0 | 2.0 | 0.01 | 0.04 | 0.01 | 90 | 1016.5 |
| 20260510111503 | 61 | 136 | 0.0 | 1.0 | 0.01 | 0.04 | 0.01 | 90 | 1016.4 |
| 20260510111003 | 61 | 136 | 1.0 | 2.0 | 0.00 | 0.03 | 0.00 | 90 | 1016.2 |
| 20260510110502 | 61 | 136 | 0.0 | 2.0 | 0.00 | 0.03 | 0.00 | 90 | 1016.1 |
| 20260510110013 | 61 | 136 | 0.0 | 2.0 | 0.00 | 0.03 | 0.00 | 90 | 1016.0 |
| 20260510105508 | 61 | 104 | 0.0 | 1.0 | 0.00 | 0.04 | 0.00 | 90 | 1016.0 |
| 20260510105001 | 61 | 104 | 0.0 | 2.0 | 0.00 | 0.04 | 0.00 | 90 | 1015.8 |
| 20260510104504 | 61 | 104 | 0.0 | 2.0 | 0.00 | 0.05 | 0.00 | 90 | 1015.7 |
| 20260510104002 | 61 | 104 | 0.0 | 2.0 | 0.00 | 0.05 | 0.00 | 90 | 1015.7 |
| 20260510103503 | 61 | 104 | 0.0 | 2.0 | 0.00 | 0.05 | 0.00 | 90 | 1015.5 |
| 20260510103004 | 61 | 95 | 1.0 | 2.0 | 0.00 | 0.05 | 0.00 | 90 | 1015.4 |
| 20260510102504 | 61 | 95 | 0.0 | 3.0 | 0.00 | 0.05 | 0.00 | 90 | 1015.3 |
| 20260510102002 | 61 | 95 | 1.0 | 3.0 | 0.00 | 0.05 | 0.00 | 90 | 1015.2 |
| 20260510101503 | 61 | 64 | 2.0 | 3.0 | 0.00 | 0.05 | 0.00 | 90 | 1015.1 |
| 20260510101002 | 61 | 129 | 0.0 | 2.0 | 0.00 | 0.05 | 0.00 | 90 | 1015.0 |
| 20260510100502 | 61 | 140 | 1.0 | 6.0 | 0.00 | 0.05 | 0.00 | 90 | 1014.9 |
| 20260510100005 | 61 | 104 | 2.0 | 6.0 | 0.00 | 0.06 | 0.00 | 90 | 1014.9 |
| 20260510095503 | 61 | 90 | 3.0 | 4.0 | 0.00 | 0.06 | 0.00 | 90 | 1014.8 |
| 20260510095002 | 61 | 77 | 2.0 | 3.0 | 0.00 | 0.06 | 0.00 | 90 | 1014.8 |
| 20260510094520 | 61 | 93 | 1.0 | 3.0 | 0.00 | 0.06 | 0.00 | 90 | 1014.7 |
| 20260510094004 | 61 | 93 | 1.0 | 3.0 | 0.00 | 0.06 | 0.00 | 90 | 1014.6 |
| 20260510093502 | 61 | 134 | 2.0 | 3.0 | 0.00 | 0.06 | 0.00 | 90 | 1014.6 |
| 20260510093012 | 61 | 79 | 1.0 | 3.0 | 0.00 | 0.07 | 0.00 | 90 | 1014.5 |
| 20260510092504 | 61 | 64 | 1.0 | 3.0 | 0.00 | 0.07 | 0.00 | 90 | 1014.5 |
| 20260510092002 | 61 | 82 | 2.0 | 3.0 | 0.00 | 0.08 | 0.00 | 90 | 1014.5 |
| 20260510091517 | 61 | 44 | 1.0 | 2.0 | 0.00 | 0.10 | 0.00 | 90 | 1014.6 |
| 20260510091004 | 61 | 44 | 0.0 | 2.0 | 0.00 | 0.12 | 0.00 | 90 | 1014.5 |
| 20260510090502 | 61 | 44 | 0.0 | 2.0 | 0.00 | 0.14 | 0.00 | 90 | 1014.6 |
| 20260510090006 | 61 | 44 | 0.0 | 1.0 | 0.00 | 0.16 | 0.00 | 90 | 1014.5 |
| 20260510085504 | 61 | 44 | 0.0 | 2.0 | 0.00 | 0.17 | 0.00 | 90 | 1014.5 |
| 20260510085002 | 62 | 44 | 0.0 | 2.0 | 0.00 | 0.18 | 0.00 | 91 | 1014.4 |
| 20260510084503 | 62 | 44 | 0.0 | 2.0 | 0.00 | 0.21 | 0.00 | 91 | 1014.3 |
| 20260510084003 | 61 | 44 | 0.0 | 3.0 | 0.00 | 0.22 | 0.00 | 91 | 1014.2 |
| 20260510083502 | 61 | 44 | 1.0 | 3.0 | 0.00 | 0.23 | 0.00 | 91 | 1014.2 |
| 20260510083005 | 61 | 9 | 1.0 | 3.0 | 0.00 | 0.23 | 0.00 | 91 | 1014.2 |
| 20260510082503 | 61 | 11 | 1.0 | 4.0 | 0.00 | 0.24 | 0.00 | 91 | 1014.1 |
| 20260510082003 | 60 | 45 | 2.0 | 4.0 | 0.00 | 0.24 | 0.00 | 91 | 1014.1 |
| 20260510081504 | 60 | 42 | 1.0 | 3.0 | 0.00 | 0.24 | 0.00 | 91 | 1014.0 |
| 20260510081004 | 59 | 40 | 1.0 | 3.0 | 0.00 | 0.24 | 0.00 | 90 | 1013.9 |
| 20260510080504 | 59 | 24 | 0.0 | 0.0 | 0.00 | 0.24 | 0.00 | 90 | 1013.9 |
| 20260510080004 | 59 | 17 | 0.0 | 0.0 | 0.00 | 0.24 | 0.00 | 90 | 1013.9 |
| 20260510075504 | 59 | 17 | 0.0 | 0.0 | 0.00 | 0.24 | 0.00 | 89 | 1013.9 |
| 20260510075002 | 59 | 17 | 0.0 | 0.0 | 0.00 | 0.24 | 0.00 | 89 | 1013.7 |
| 20260510074505 | 59 | 14 | 0.0 | 0.0 | 0.00 | 0.24 | 0.00 | 89 | 1013.7 |
| 20260510074004 | 59 | 10 | 0.0 | 0.0 | 0.00 | 0.24 | 0.00 | 89 | 1013.6 |
| 20260510073503 | 59 | 10 | 0.0 | 0.0 | 0.00 | 0.24 | 0.00 | 89 | 1013.7 |
| 20260510073008 | 59 | 10 | 0.0 | 0.0 | 0.00 | 0.24 | 0.00 | 89 | 1013.7 |
| 20260510072503 | 59 | 10 | 0.0 | 0.0 | 0.00 | 0.24 | 0.00 | 89 | 1013.8 |
| 20260510072003 | 59 | 10 | 0.0 | 0.0 | 0.00 | 0.24 | 0.00 | 89 | 1013.9 |
| 20260510071511 | 60 | 10 | 0.0 | 0.0 | 0.00 | 0.24 | 0.00 | 89 | 1014.0 |
| 20260510071004 | 60 | 10 | 0.0 | 0.0 | 0.00 | 0.24 | 0.00 | 89 | 1014.1 |
| 20260510070503 | 60 | 10 | 0.0 | 0.0 | 0.00 | 0.24 | 0.00 | 89 | 1014.1 |
| 20260510070022 | 60 | 10 | 0.0 | 1.0 | 0.00 | 0.24 | 0.00 | 89 | 1014.0 |
| 20260510065504 | 60 | 10 | 0.0 | 1.0 | 0.00 | 0.24 | 0.00 | 89 | 1014.0 |
| 20260510065004 | 60 | 10 | 0.0 | 2.0 | 0.00 | 0.24 | 0.00 | 89 | 1013.9 |
| 20260510064510 | 60 | 10 | 1.0 | 2.0 | 0.00 | 0.24 | 0.00 | 89 | 1013.9 |
| 20260510064004 | 60 | 10 | 0.0 | 2.0 | 0.00 | 0.24 | 0.00 | 89 | 1013.9 |
| 20260510063508 | 60 | 10 | 1.0 | 1.0 | 0.00 | 0.24 | 0.00 | 89 | 1014.0 |
| 20260510063004 | 60 | 10 | 0.0 | 0.0 | 0.00 | 0.24 | 0.00 | 89 | 1014.0 |
| 20260510062503 | 60 | 10 | 0.0 | 0.0 | 0.00 | 0.24 | 0.00 | 89 | 1014.1 |
| 20260510062005 | 60 | 10 | 0.0 | 0.0 | 0.00 | 0.24 | 0.00 | 89 | 1014.1 |
| 20260510061507 | 60 | 10 | 0.0 | 0.0 | 0.00 | 0.24 | 0.00 | 89 | 1014.1 |
| 20260510061007 | 60 | 10 | 0.0 | 0.0 | 0.00 | 0.24 | 0.00 | 89 | 1014.2 |
| 20260510060504 | 60 | 10 | 0.0 | 0.0 | 0.00 | 0.24 | 0.00 | 89 | 1014.1 |
| 20260510060013 | 60 | 10 | 0.0 | 0.0 | 0.00 | 0.24 | 0.00 | 89 | 1014.3 |
| 20260510055505 | 60 | 10 | 0.0 | 0.0 | 0.00 | 0.24 | 0.00 | 89 | 1014.4 |
| 20260510055004 | 60 | 10 | 0.0 | 1.0 | 0.00 | 0.24 | 0.00 | 89 | 1014.4 |
| 20260510054516 | 60 | 10 | 0.0 | 1.0 | 0.00 | 0.24 | 0.00 | 89 | 1014.4 |
| 20260510054005 | 60 | 10 | 0.0 | 2.0 | 0.00 | 0.24 | 0.00 | 89 | 1014.5 |
| 20260510053504 | 60 | 10 | 0.0 | 2.0 | 0.00 | 0.24 | 0.00 | 89 | 1014.6 |
| 20260510053042 | 60 | 10 | 0.0 | 0.0 | 0.00 | 0.24 | 0.00 | 89 | 1014.7 |
| 20260510052505 | 60 | 10 | 0.0 | 0.0 | 0.00 | 0.24 | 0.00 | 88 | 1014.7 |
| 20260510052006 | 60 | 10 | 0.0 | 1.0 | 0.00 | 0.24 | 0.00 | 88 | 1014.7 |
| 20260510051506 | 60 | 10 | 0.0 | 1.0 | 0.00 | 0.24 | 0.00 | 88 | 1014.7 |
| 20260510051004 | 60 | 10 | 0.0 | 0.0 | 0.00 | 0.24 | 0.00 | 88 | 1014.8 |
| 20260510050503 | 60 | 10 | 0.0 | 0.0 | 0.00 | 0.24 | 0.00 | 89 | 1014.6 |
| 20260510050013 | 60 | 10 | 0.0 | 0.0 | 0.00 | 0.24 | 0.00 | 89 | 1014.6 |
| 20260510045504 | 60 | 10 | 0.0 | 2.0 | 0.00 | 0.24 | 0.24 | 88 | 1014.5 |
| 20260510045010 | 60 | 10 | 0.0 | 2.0 | 0.00 | 0.24 | 0.24 | 88 | 1014.6 |
| 20260510044511 | 60 | 336 | 1.0 | 2.0 | 0.00 | 0.24 | 0.24 | 88 | 1014.6 |
| 20260510044008 | 60 | 216 | 0.0 | 2.0 | 0.00 | 0.24 | 0.24 | 88 | 1014.6 |
| 20260510043501 | 61 | 216 | 0.0 | 2.0 | 0.00 | 0.24 | 0.24 | 88 | 1014.6 |
| 20260510043006 | 61 | 216 | 0.0 | 0.0 | 0.00 | 0.24 | 0.24 | 88 | 1014.6 |
| 20260510042505 | 61 | 216 | 0.0 | 0.0 | 0.00 | 0.24 | 0.24 | 88 | 1014.6 |
| 20260510042001 | 61 | 216 | 0.0 | 0.0 | 0.00 | 0.24 | 0.24 | 88 | 1014.5 |
| 20260510041508 | 61 | 216 | 0.0 | 0.0 | 0.00 | 0.24 | 0.24 | 88 | 1014.5 |
| 20260510041003 | 61 | 216 | 0.0 | 1.0 | 0.00 | 0.24 | 0.24 | 88 | 1014.6 |
| 20260510040502 | 62 | 216 | 0.0 | 2.0 | 0.00 | 0.24 | 0.24 | 88 | 1014.6 |
| 20260510040004 | 62 | 216 | 1.0 | 2.0 | 0.00 | 0.24 | 0.24 | 88 | 1014.4 |
| 20260510035502 | 62 | 216 | 0.0 | 0.0 | 0.00 | 0.24 | 0.24 | 88 | 1014.6 |
| 20260510035004 | 62 | 216 | 0.0 | 1.0 | 0.00 | 0.24 | 0.24 | 88 | 1014.7 |
| 20260510034503 | 62 | 216 | 0.0 | 1.0 | 0.00 | 0.24 | 0.24 | 87 | 1014.7 |
| 20260510034003 | 62 | 216 | 0.0 | 0.0 | 0.00 | 0.24 | 0.24 | 87 | 1014.9 |
| 20260510033502 | 62 | 216 | 0.0 | 0.0 | 0.00 | 0.24 | 0.24 | 87 | 1014.8 |
| 20260510033004 | 62 | 216 | 0.0 | 0.0 | 0.00 | 0.24 | 0.24 | 87 | 1014.8 |
| 20260510032504 | 62 | 216 | 0.0 | 0.0 | 0.00 | 0.24 | 0.24 | 87 | 1014.9 |
| 20260510032004 | 63 | 216 | 0.0 | 0.0 | 0.00 | 0.24 | 0.24 | 87 | 1015.1 |
| 20260510031509 | 63 | 216 | 0.0 | 0.0 | 0.00 | 0.24 | 0.24 | 88 | 1015.0 |
| 20260510031004 | 63 | 216 | 0.0 | 2.0 | 0.00 | 0.24 | 0.24 | 87 | 1014.9 |
| 20260510030504 | 63 | 216 | 0.0 | 2.0 | 0.00 | 0.24 | 0.24 | 87 | 1014.7 |
| 20260510030003 | 63 | 216 | 0.0 | 2.0 | 0.00 | 0.24 | 0.24 | 87 | 1014.7 |
| 20260510025503 | 63 | 216 | 0.0 | 0.0 | 0.00 | 0.24 | 0.24 | 87 | 1014.7 |
| 20260510025004 | 63 | 216 | 0.0 | 2.0 | 0.00 | 0.24 | 0.24 | 86 | 1014.8 |
| 20260510024514 | 63 | 216 | 0.0 | 2.0 | 0.00 | 0.24 | 0.24 | 87 | 1014.7 |
| 20260510024006 | 63 | 216 | 0.0 | 2.0 | 0.00 | 0.24 | 0.24 | 86 | 1014.6 |
| 20260510023502 | 64 | 216 | 0.0 | 2.0 | 0.00 | 0.24 | 0.24 | 86 | 1014.8 |
| 20260510023014 | 64 | 216 | 0.0 | 2.0 | 0.00 | 0.24 | 0.24 | 86 | 1014.5 |
| 20260510022502 | 64 | 216 | 0.0 | 2.0 | 0.00 | 0.24 | 0.24 | 86 | 1014.3 |
| 20260510022002 | 64 | 207 | 0.0 | 2.0 | 0.00 | 0.24 | 0.24 | 86 | 1014.3 |
| 20260510021512 | 64 | 203 | 1.0 | 2.0 | 0.00 | 0.24 | 0.24 | 86 | 1014.2 |
| 20260510021004 | 65 | 235 | 1.0 | 2.0 | 0.00 | 0.24 | 0.24 | 87 | 1014.3 |
| 20260510020503 | 65 | 262 | 1.0 | 3.0 | 0.00 | 0.24 | 0.24 | 87 | 1014.3 |
| 20260510020004 | 65 | 229 | 1.0 | 3.0 | 0.00 | 0.24 | 0.24 | 86 | 1014.2 |
| 20260510015505 | 65 | 202 | 0.0 | 2.0 | 0.00 | 0.24 | 0.24 | 85 | 1014.0 |
| 20260510015002 | 65 | 199 | 0.0 | 2.0 | 0.00 | 0.24 | 0.24 | 86 | 1014.0 |
| 20260510014510 | 65 | 245 | 0.0 | 2.0 | 0.00 | 0.24 | 0.24 | 86 | 1014.1 |
| 20260510014003 | 65 | 233 | 0.0 | 3.0 | 0.00 | 0.24 | 0.24 | 85 | 1014.0 |
| 20260510013506 | 65 | 207 | 1.0 | 4.0 | 0.00 | 0.24 | 0.24 | 85 | 1013.9 |
| 20260510013006 | 66 | 215 | 1.0 | 7.0 | 0.00 | 0.24 | 0.24 | 85 | 1013.7 |
| 20260510012506 | 66 | 215 | 2.0 | 7.0 | 0.00 | 0.24 | 0.24 | 85 | 1013.7 |
| 20260510012003 | 66 | 212 | 3.0 | 6.0 | 0.00 | 0.24 | 0.24 | 85 | 1013.6 |
| 20260510011504 | 66 | 215 | 2.0 | 6.0 | 0.00 | 0.24 | 0.24 | 85 | 1013.3 |
| 20260510011003 | 66 | 213 | 1.0 | 7.0 | 0.00 | 0.24 | 0.24 | 85 | 1013.5 |
| 20260510010503 | 66 | 206 | 4.0 | 7.0 | 0.00 | 0.24 | 0.24 | 84 | 1013.6 |
| 20260510010004 | 67 | 230 | 3.0 | 6.0 | 0.00 | 0.24 | 0.24 | 84 | 1013.4 |
| 20260510005504 | 67 | 221 | 2.0 | 9.0 | 0.00 | 0.24 | 0.24 | 84 | 1013.1 |
| 20260510005004 | 67 | 186 | 3.0 | 9.0 | 0.00 | 0.24 | 0.24 | 84 | 1013.0 |
| 20260510004506 | 67 | 204 | 3.0 | 7.0 | 0.00 | 0.24 | 0.24 | 84 | 1013.1 |
| 20260510004003 | 67 | 174 | 2.0 | 7.0 | 0.00 | 0.24 | 0.24 | 84 | 1013.1 |
| 20260510003503 | 67 | 166 | 3.0 | 7.0 | 0.00 | 0.24 | 0.24 | 83 | 1013.1 |
| 20260510003009 | 68 | 219 | 3.0 | 7.0 | 0.00 | 0.24 | 0.24 | 83 | 1013.0 |
| 20260510002503 | 68 | 205 | 4.0 | 7.0 | 0.00 | 0.24 | 0.24 | 83 | 1013.0 |
| 20260510002004 | 68 | 229 | 1.0 | 5.0 | 0.00 | 0.24 | 0.24 | 83 | 1013.0 |
| 20260510001513 | 68 | 220 | 3.0 | 5.0 | 0.00 | 0.24 | 0.24 | 83 | 1013.0 |
| 20260510001004 | 68 | 245 | 0.0 | 3.0 | 0.00 | 0.24 | 0.24 | 82 | 1013.1 |
| 20260510000508 | 68 | 254 | 1.0 | 5.0 | 0.00 | 0.24 | 0.24 | 82 | 1013.1 |
| 20260510000010 | 68 | 242 | 1.0 | 5.0 | 0.00 | 0.24 | 0.24 | 82 | 1012.9 |
| 20260509235505 | 68 | 252 | 2.0 | 4.0 | 0.00 | 0.24 | 0.24 | 82 | 1013.0 |
| 20260509235005 | 69 | 253 | 1.0 | 4.0 | 0.00 | 0.24 | 0.24 | 81 | 1012.8 |
| 20260509234504 | 69 | 211 | 1.0 | 3.0 | 0.00 | 0.24 | 0.24 | 81 | 1012.6 |
| 20260509234006 | 69 | 209 | 1.0 | 3.0 | 0.00 | 0.24 | 0.24 | 81 | 1012.6 |
| 20260509233503 | 69 | 165 | 0.0 | 2.0 | 0.00 | 0.24 | 0.24 | 82 | 1012.4 |
| 20260509233004 | 69 | 165 | 0.0 | 2.0 | 0.00 | 0.24 | 0.24 | 81 | 1012.4 |
| 20260509232503 | 69 | 165 | 0.0 | 2.0 | 0.00 | 0.24 | 0.24 | 80 | 1012.4 |
| 20260509232007 | 69 | 165 | 0.0 | 2.0 | 0.00 | 0.24 | 0.24 | 80 | 1012.3 |
| 20260509231505 | 69 | 165 | 0.0 | 2.0 | 0.00 | 0.24 | 0.24 | 79 | 1012.4 |
| 20260509231011 | 69 | 198 | 1.0 | 2.0 | 0.00 | 0.24 | 0.24 | 79 | 1012.4 |
| 20260509230503 | 70 | 178 | 0.0 | 2.0 | 0.00 | 0.24 | 0.24 | 78 | 1012.5 |
| 20260509230018 | 70 | 163 | 1.0 | 2.0 | 0.00 | 0.24 | 0.24 | 78 | 1012.3 |
| 20260509225507 | 70 | 175 | 1.0 | 4.0 | 0.00 | 0.24 | 0.24 | 78 | 1012.2 |
| 20260509225004 | 70 | 190 | 1.0 | 5.0 | 0.00 | 0.24 | 0.24 | 78 | 1012.1 |
| 20260509224522 | 70 | 173 | 1.0 | 5.0 | 0.00 | 0.24 | 0.24 | 77 | 1012.1 |
| 20260509224004 | 70 | 182 | 1.0 | 4.0 | 0.00 | 0.24 | 0.24 | 77 | 1011.9 |
| 20260509223504 | 70 | 165 | 1.0 | 2.0 | 0.00 | 0.24 | 0.24 | 77 | 1012.0 |
| 20260509223004 | 71 | 178 | 0.0 | 2.0 | 0.00 | 0.24 | 0.24 | 77 | 1012.0 |
| 20260509222503 | 70 | 188 | 0.0 | 3.0 | 0.00 | 0.24 | 0.24 | 76 | 1011.9 |
| 20260509222006 | 70 | 172 | 1.0 | 4.0 | 0.00 | 0.24 | 0.24 | 76 | 1011.9 |
| 20260509221508 | 70 | 180 | 2.0 | 4.0 | 0.00 | 0.24 | 0.24 | 76 | 1011.8 |
| 20260509221005 | 70 | 191 | 1.0 | 2.0 | 0.00 | 0.24 | 0.24 | 76 | 1011.9 |
| 20260509220501 | 70 | 193 | 1.0 | 2.0 | 0.00 | 0.24 | 0.24 | 76 | 1011.8 |
| 20260509220006 | 71 | 181 | 0.0 | 2.0 | 0.00 | 0.24 | 0.24 | 76 | 1011.7 |
| 20260509215503 | 71 | 163 | 1.0 | 3.0 | 0.00 | 0.24 | 0.24 | 76 | 1011.7 |
| 20260509215002 | 71 | 166 | 0.0 | 3.0 | 0.00 | 0.24 | 0.24 | 76 | 1011.7 |
| 20260509214502 | 71 | 167 | 1.0 | 2.0 | 0.00 | 0.24 | 0.24 | 76 | 1011.7 |
| 20260509214003 | 71 | 181 | 1.0 | 2.0 | 0.00 | 0.24 | 0.24 | 76 | 1011.7 |
| 20260509213503 | 71 | 179 | 0.0 | 4.0 | 0.00 | 0.24 | 0.24 | 75 | 1011.8 |
| 20260509213016 | 71 | 180 | 1.0 | 4.0 | 0.00 | 0.24 | 0.24 | 75 | 1011.7 |
| 20260509212508 | 71 | 155 | 1.0 | 2.0 | 0.00 | 0.24 | 0.24 | 76 | 1011.7 |
| 20260509212002 | 71 | 98 | 0.0 | 2.0 | 0.00 | 0.24 | 0.24 | 75 | 1011.6 |
| 20260509211508 | 71 | 98 | 0.0 | 2.0 | 0.00 | 0.24 | 0.24 | 74 | 1011.8 |
| 20260509211001 | 71 | 98 | 0.0 | 2.0 | 0.00 | 0.24 | 0.24 | 75 | 1011.6 |
| 20260509210503 | 71 | 98 | 1.0 | 2.0 | 0.00 | 0.24 | 0.24 | 75 | 1011.4 |
| 20260509210003 | 71 | 274 | 0.0 | 2.0 | 0.00 | 0.24 | 0.24 | 74 | 1011.5 |
| 20260509205502 | 71 | 274 | 1.0 | 2.0 | 0.00 | 0.24 | 0.24 | 73 | 1011.5 |